Regional Weather Roundup
Issued by NWS

Home | Current Version | Previous Version | Text Only | Print | Product List | Glossary Off
Versions: 1 2 3 4 5 6 7 8 9 10 11 12 13 14 15 16 17 18 19 20 21 22 23 24 25 26 27 28 29 30 31 32 33 34 35 36 37 38 39 40 41 42 43 44 45 46 47 48 49 50

000
ASUS43 KFSD 040610
RWRSD

WEATHER ROUNDUP FOR SOUTH DAKOTA
NATIONAL WEATHER SERVICE SIOUX FALLS SD
100 AM CDT MON MAY 04 2015

NOTE: "FAIR" INDICATES FEW OR NO CLOUDS BELOW 12,000 FEET WITH NO
SIGNIFICANT WEATHER AND/OR OBSTRUCTIONS TO VISIBILITY.


SDZ001>005-009-010-012>017-040700-
NORTHWEST AND NORTH CENTRAL SOUTH DAKOTA

CITY           SKY/WX    TMP DP  RH WIND       PRES   REMARKS
BUFFALO          N/A     47  34  60 NE9       30.04S
FAITH            N/A     47  26  44 NE7       30.09S
MOBRIDGE       CLEAR     44  25  47 N9        30.07R
$$

SDZ012>016-024>037-041>051-057-063-072>074-040700-
SOUTHWEST AND SOUTH CENTRAL SOUTH DAKOTA

CITY           SKY/WX    TMP DP  RH WIND       PRES   REMARKS
RAPID CTY ARPT MOCLDY    47  34  60 E3        30.10R
PIERRE         CLEAR     44  25  47 NE5       30.08R
CUSTER         CLOUDY    47  30  51 NE7       30.12S
ELLSWORTH AFB  MOCLDY    51  34  52 CALM      30.10R
PHILIP         MOCLDY    46  26  45 CALM      30.08R
PINE RIDGE     CLOUDY    49  34  56 E9        30.08R
SPEARFISH      FAIR      45  37  76 SE6       30.12S
WINNER         FAIR      52  27  38 NE7       30.08R
$$

SDZ004>011-016>023-039-040-040700-
NORTHEAST SOUTH DAKOTA

CITY           SKY/WX    TMP DP  RH WIND       PRES   REMARKS
ABERDEEN       CLEAR     43  26  51 N6        30.08R
WATERTOWN      CLEAR     43  29  57 N6        30.06R
BROOKINGS      PTCLDY    48  30  49 N6        30.06R
SISSETON         N/A     43  25  49 N9        30.06R
$$

SDZ017-020-022-023-036>040-048>070-040700-
SOUTHEAST SOUTH DAKOTA

CITY           SKY/WX    TMP DP  RH WIND       PRES   REMARKS
SIOUX FALLS    MOCLDY    53  32  44 NE5       30.03R
HURON          PTCLDY    49  26  41 N7        30.06R
CHAMBERLAIN    PTCLDY    50  26  40 CALM      30.08R
MITCHELL       MOCLDY    49  35  58 NW6       30.07R
YANKTON        CLEAR     57  36  44 N10       30.02S
$$

ABBREVIATIONS USED IN REMARKS
   TC - TEMPERATURE IN CELSIUS
  WCI - WIND CHILL INDEX
   HX - HEAT INDEX
  VSB - VISIBILITY




USA.gov is the U.S. government's official web portal to all federal, state and local government web resources and services.